GFSWCAN_con_3kmhel_207.txt.gz
Helicity
-2 1 10 16 14 8 -3 -11 -14 -4 1 4 8 14 6 -8 13 29 60 121 307 235 166 250 180 89 102 261 154 121 28 13 33 -1 17 -37 25 28 62 33 103 134 348 276 372 269 247 86 152 205 132 89 28 -27
-6 1 8 12 16 12 4 -17 -16 -10 -4 0 13 21 23 10 31 79 29 120 241 258 288 277 293 342 318 337 236 215 152 41 42 35 42 30 9 49 53 66 -3 146 140 66 144 137 211 77 150 181 140 141 81 78
-6 -8 4 3 12 16 10 9 -21 -21 8 37 33 13 12 29 77 70 93 159 139 182 284 327 327 361 193 110 116 115 147 120 89 67 51 43 71 84 -6 -9 17 34 201 176 167 156 149 61 246 233 223 140 81 118
-11 -16 -14 -6 -5 -5 -2 7 19 21 5 59 43 -9 -9 52 101 62 114 124 147 107 110 119 77 109 182 91 96 88 82 66 61 95 79 7 24 155 171 183 149 96 148 202 171 128 212 193 175 190 196 166 184 188
-5 -11 -18 -22 -18 -20 -15 -5 15 37 53 21 41 -5 -7 27 -19 47 107 113 101 84 47 49 51 59 78 84 48 36 -12 5 78 120 138 46 76 -27 50 225 217 162 92 91 62 95 115 50 127 186 184 163 170 236
0 -10 -14 -17 -12 -16 -7 0 14 26 48 55 33 14 -18 2 5 41 16 65 64 26 32 20 -17 -4 50 70 33 -40 -77 -52 23 101 97 25 72 16 -11 93 74 141 88 94 74 66 87 92 199 222 175 163 262 260
16 -5 -17 -17 -20 -19 -17 -2 15 31 56 87 41 19 -33 -33 81 37 8 7 37 20 8 -6 14 -2 83 9 -20 23 113 -10 123 112 104 116 150 132 101 108 52 21 8 54 83 153 186 191 249 319 365 295 340 303
17 12 -9 -23 -22 -19 -11 -12 4 23 59 109 57 0 -15 40 96 80 91 30 40 27 42 -18 -38 -13 75 144 183 131 142 174 118 147 236 208 184 147 76 71 80 88 58 50 101 171 183 259 359 404 319 309 317 289
20 10 5 -17 -27 -22 -8 1 4 15 63 108 27 58 84 44 18 12 20 25 44 51 51 80 49 -9 92 97 173 223 190 166 144 189 218 222 270 222 143 109 90 46 127 165 203 192 212 277 261 259 289 296 311 225
22 14 6 4 -12 -21 -17 -3 11 13 69 1 37 53 60 24 -9 11 38 28 16 57 86 69 78 96 142 135 117 97 119 157 106 141 129 131 118 81 99 94 77 101 134 197 302 217 229 243 290 289 292 181 147 122
17 16 13 6 8 -18 -25 -10 -1 -8 -18 -1 29 48 38 3 34 33 22 38 60 58 47 40 68 73 113 107 117 83 60 86 92 119 133 126 112 99 101 99 111 106 104 132 98 106 74 158 199 161 99 107 123 131
19 12 12 11 5 -3 -28 -17 -6 16 62 79 59 53 33 30 52 26 15 29 77 105 82 94 77 86 97 75 64 56 61 52 55 91 83 63 62 85 84 82 79 119 49 28 37 65 45 75 86 117 107 115 143 165
27 16 13 9 8 -3 -9 -13 -6 -4 22 51 55 53 49 31 46 60 20 34 66 106 104 129 103 62 50 43 46 43 57 53 52 60 66 60 53 49 29 36 44 60 96 104 74 78 102 101 106 130 169 182 189 182
36 19 16 15 13 31 36 23 26 27 33 49 71 52 66 37 45 34 23 -14 14 19 49 81 99 92 63 68 58 69 54 43 78 62 61 52 25 39 42 35 44 58 57 77 85 106 138 157 183 197 188 166 160 141
45 34 18 37 39 41 38 32 50 49 51 59 82 76 58 36 25 13 3 2 0 7 12 8 30 47 76 94 89 93 109 109 85 73 39 -5 -1 17 33 54 81 99 103 116 117 151 166 178 189 187 159 135 115 119
57 56 72 74 60 49 51 23 53 69 76 87 95 100 68 47 11 6 5 0 -2 4 7 14 24 44 76 60 103 128 127 121 94 67 43 18 27 56 62 70 78 83 96 118 133 139 148 151 150 146 127 120 122 115
48 131 70 73 40 56 77 57 81 99 132 161 119 79 75 63 27 20 21 -2 -15 -10 1 13 29 33 25 45 65 48 59 46 45 48 32 31 37 66 94 105 108 103 103 107 120 125 121 120 129 139 134 112 91 78
79 54 43 87 69 68 72 88 106 139 155 154 122 76 73 60 50 20 5 11 0 -8 0 1 12 25 27 29 40 36 30 19 20 23 24 34 51 81 92 96 98 91 89 98 95 91 94 96 94 90 72 65 68 62
76 64 42 96 101 98 132 118 137 161 125 126 109 89 92 76 40 34 14 22 19 8 9 -5 -2 11 18 16 24 21 17 10 3 6 8 3 35 71 82 75 70 66 63 70 63 57 50 40 36 34 36 39 40 51
47 39 19 80 132 133 170 176 159 160 114 96 111 108 125 105 86 58 51 53 38 12 -11 -12 -10 3 16 19 11 13 6 14 33 43 18 -3 11 16 28 40 47 56 53 44 41 44 36 34 34 30 32 37 44 35
76 94 70 127 158 138 210 216 186 140 113 102 97 116 133 131 145 105 80 58 79 47 2 -23 -22 37 48 57 42 12 13 -1 4 21 8 8 11 19 19 13 37 34 29 17 15 16 24 23 29 25 24 18 31 29
113 71 131 105 150 159 206 187 178 181 143 111 98 109 108 116 127 130 116 122 76 45 25 -1 10 23 55 74 54 35 33 45 49 66 73 77 45 30 34 34 39 12 9 12 15 12 8 12 15 12 12 20 25 28
132 146 125 117 130 125 141 141 171 169 145 100 125 119 110 100 106 127 119 96 65 41 39 45 50 51 59 100 103 107 79 60 45 45 48 55 55 47 43 41 32 29 21 25 34 22 4 7 8 20 28 31 29 31
191 142 158 128 161 178 105 151 151 146 153 136 91 111 102 132 123 140 110 86 83 60 51 35 32 70 117 131 125 133 131 81 86 89 67 63 55 47 46 39 21 16 33 49 41 40 41 41 49 44 42 39 36 44
171 112 113 159 144 143 175 140 125 98 108 90 107 124 96 104 103 91 71 69 97 78 62 49 40 73 108 129 122 139 168 111 73 106 135 102 94 90 75 61 46 40 63 73 68 61 63 70 68 72 76 69 68 71
111 89 113 118 110 113 94 86 73 71 95 107 91 114 112 104 106 73 73 98 108 107 99 81 90 125 139 121 107 124 150 148 109 113 125 120 100 78 79 79 81 79 68 61 54 55 60 78 89 93 87 86 109 115
87 107 112 68 53 46 36 39 71 89 88 93 84 89 88 68 77 87 88 97 106 135 155 146 139 142 139 146 158 161 161 170 154 135 128 128 125 121 105 81 69 82 90 75 73 82 77 85 92 96 95 105 117 136
92 103 95 71 39 21 50 43 36 46 70 67 90 114 99 119 107 78 73 100 155 218 258 240 192 161 144 138 136 140 159 146 131 127 134 157 170 175 182 171 158 153 125 110 83 69 74 94 118 115 103 109 109 114
65 106 96 113 61 38 46 51 53 44 64 58 94 144 153 124 94 85 89 93 87 90 115 124 148 132 129 130 124 101 94 90 57 47 49 58 85 127 158 146 141 138 132 136 132 92 59 53 66 98 123 120 117 123
37 55 59 71 88 87 86 82 32 43 59 105 103 138 183 181 197 150 111 104 89 72 50 27 6 11 7 20 28 55 77 82 82 68 65 78 91 105 109 112 117 120 121 121 128 135 109 67 53 80 119 152 139 134
26 17 48 68 58 29 47 75 59 97 86 148 172 160 161 148 168 143 104 84 42 16 18 24 33 30 37 46 48 43 52 81 87 93 89 82 76 77 83 87 88 86 91 101 115 123 127 110 77 74 76 73 87 103
35 32 9 54 76 86 86 50 43 59 116 132 175 157 139 129 125 114 157 96 53 55 58 40 43 46 47 48 52 59 60 54 66 73 79 73 72 68 68 74 77 75 79 91 98 110 122 109 82 70 70 67 77 69
16 39 38 28 59 85 107 104 118 93 115 124 146 148 137 115 108 97 86 90 63 46 52 64 73 66 65 65 62 59 63 59 57 65 69 63 55 48 41 55 70 79 81 87 107 117 129 129 126 109 100 94 100 107

GFSWCAN_con_3kmhel_210.txt.gz
Helicity
-9 -9 -9 -7 -6 -2 -6 -8 -4 -5 -10 -1 8 9 2 -12 -27 -48 -1 60 167 158 156 145 164 152 137 247 209 168 152 192 126 113 146 43 -34 -87 -128 -50 -30 0 80 116 166 180 261 78 129 234 203 201 183 -3
-16 -13 -14 -18 -16 -18 -18 -26 -22 -11 6 -12 3 18 5 -2 -3 -11 13 70 161 172 186 186 132 146 189 227 232 239 273 180 111 105 111 92 36 22 -11 -50 -4 -48 42 57 168 285 443 159 202 154 300 177 30 17
2 -19 -31 -33 -34 -39 -41 -42 -40 -19 1 23 12 29 32 -15 -35 8 53 85 191 174 169 295 341 247 227 163 161 185 157 142 167 70 86 65 39 7 -68 -35 -8 -1 70 9 -21 16 84 112 102 116 72 33 30 49
16 5 -9 -19 -32 -32 -33 -35 -32 -27 -9 14 28 10 16 4 -5 -39 86 113 192 122 166 136 139 99 86 105 72 151 51 27 11 57 93 71 31 2 32 54 74 117 42 -47 -5 86 41 34 24 13 75 34 73 132
15 10 -1 -18 -22 -25 -26 -22 -19 -15 -11 7 27 29 10 -4 -9 -29 86 155 148 102 102 114 115 134 98 37 61 42 26 34 53 61 86 60 28 30 -64 32 20 60 75 103 6 24 43 85 89 98 84 48 51 98
20 15 10 3 -22 -32 -25 -25 -26 -10 2 12 36 30 17 -6 -15 72 30 36 44 51 100 74 101 8 -23 3 55 46 41 83 75 79 98 55 34 42 -10 49 10 8 50 44 88 86 41 27 3 -8 39 82 99 76
25 17 12 4 -1 -24 -40 -36 -35 -24 9 23 44 24 26 -20 100 109 53 65 55 45 84 -58 -26 25 -14 51 41 -22 5 72 -17 16 37 82 60 88 47 -8 27 13 28 97 103 81 76 2 45 77 90 122 125 134
30 23 17 10 0 -6 -26 -41 -37 -27 6 42 50 24 7 78 118 33 -13 98 56 17 37 54 46 -9 35 98 64 16 -28 -20 -74 -52 -28 81 129 144 24 26 60 65 46 31 50 42 47 39 83 131 119 165 212 170
39 28 20 18 7 -4 -5 -31 -38 -22 17 72 45 5 82 98 99 66 62 56 32 39 44 67 64 56 26 86 140 181 113 87 74 55 120 173 151 96 86 84 73 48 42 58 69 85 83 67 134 200 179 174 233 242
45 33 23 17 22 4 -5 -13 -34 -35 40 44 23 34 58 93 28 36 57 26 12 32 34 19 25 50 53 57 73 102 163 178 157 189 135 132 82 115 127 85 100 116 68 52 60 92 127 137 218 244 214 205 229 309
43 36 22 15 12 4 -2 -6 21 -2 -8 16 36 42 48 20 54 81 95 19 21 47 51 36 20 27 28 36 59 74 55 56 54 80 88 79 61 63 78 74 99 101 106 95 101 113 144 148 177 246 301 299 281 226
34 42 25 15 16 5 2 -2 26 28 24 21 39 27 52 66 67 70 68 63 18 58 70 70 51 36 39 40 36 37 52 41 40 52 65 70 71 78 93 93 98 119 96 90 82 125 127 167 222 273 333 330 231 176
26 35 45 23 29 15 10 18 32 18 -2 27 46 56 61 59 71 79 70 54 28 37 57 71 68 60 67 57 62 39 45 45 42 27 34 35 49 46 53 74 131 148 185 131 153 136 138 199 212 145 118 92 95 128
25 23 35 27 38 22 31 31 27 40 43 75 98 113 83 87 63 68 54 41 39 21 25 31 37 59 79 71 69 62 61 46 48 39 39 30 33 41 65 100 128 126 93 126 83 59 82 110 111 106 128 137 166 178
33 26 14 20 47 72 54 44 28 48 78 122 130 128 107 76 66 61 43 27 25 7 13 16 20 37 77 97 85 82 86 79 69 66 47 52 43 49 79 101 97 97 98 63 50 79 104 121 140 154 147 159 160 153
37 27 27 41 54 54 54 50 55 86 119 143 167 151 101 89 73 48 36 20 32 12 1 9 14 29 51 67 83 114 126 104 84 84 60 32 33 40 60 79 95 92 89 93 99 98 107 124 129 135 135 122 112 113
38 64 49 49 47 39 80 71 90 135 156 207 169 144 118 73 74 59 41 35 31 15 4 -5 7 24 21 32 58 55 77 67 58 65 48 35 40 57 61 75 76 66 71 77 89 102 119 122 118 114 109 94 117 133
67 47 39 29 57 70 94 118 157 193 205 207 144 105 99 82 81 67 42 45 29 21 10 -2 -13 -2 13 17 24 38 42 32 35 36 40 41 46 69 84 98 97 90 92 94 100 103 99 94 96 96 108 113 114 108
67 47 20 35 53 102 115 143 186 235 172 180 136 115 91 92 72 74 54 43 26 29 16 -2 -11 -16 -14 10 25 32 21 15 14 15 19 31 59 83 95 94 86 76 73 71 79 85 79 72 76 71 67 62 67 64
37 43 17 33 103 169 202 198 187 218 183 142 135 118 123 118 108 101 76 45 37 39 15 11 -5 -17 -15 15 31 37 24 20 26 21 15 19 34 54 65 67 67 50 49 65 71 68 61 54 49 47 41 41 42 49
90 69 55 51 111 166 257 250 257 202 147 127 117 109 143 128 136 139 134 88 90 67 29 10 7 19 41 46 41 36 33 17 14 17 17 25 9 16 28 27 40 53 52 39 34 38 33 31 40 43 46 50 51 50
78 49 84 54 131 163 199 187 224 197 168 139 118 114 125 123 117 118 131 136 122 72 62 45 4 6 39 58 60 55 47 46 45 48 48 44 28 10 7 9 11 18 20 20 21 21 19 29 34 37 39 46 48 46
81 97 61 67 97 110 139 89 120 146 153 108 106 120 117 109 99 107 108 87 87 91 81 77 71 72 72 102 99 95 74 52 46 51 42 31 23 20 27 22 20 25 19 18 14 16 11 15 21 30 39 42 43 47
144 116 102 84 86 86 55 100 80 75 94 87 106 107 97 115 102 115 101 68 72 86 100 101 96 108 131 133 117 110 118 88 90 98 74 66 64 57 44 36 26 23 26 32 31 32 29 23 25 26 34 37 34 35
76 42 34 94 78 63 -16 38 45 36 70 79 78 101 54 90 97 86 78 69 73 78 97 101 93 67 100 134 132 146 165 98 75 95 110 88 87 86 78 70 64 56 52 55 53 50 53 53 52 48 50 47 38 34
18 36 36 59 86 42 29 18 -24 24 41 43 60 67 61 69 82 97 114 113 90 108 104 89 108 123 106 100 122 132 145 149 97 108 136 124 109 92 82 76 78 77 63 67 74 67 63 62 64 59 57 51 51 63
63 75 59 64 37 27 19 18 37 28 43 69 45 49 78 97 81 100 97 103 101 110 128 143 129 118 128 159 170 170 161 168 146 121 126 124 119 116 107 94 92 97 86 78 73 70 67 70 68 65 68 75 83 92
83 95 73 45 7 -17 -7 3 47 11 20 48 62 62 84 109 102 83 92 100 103 119 159 210 235 212 201 204 191 170 163 138 124 121 123 130 128 123 127 113 100 102 87 81 88 79 61 46 50 62 78 95 103 90
55 83 69 84 74 66 40 51 30 34 61 64 61 98 106 116 137 120 133 148 148 154 223 241 228 202 201 188 183 178 162 130 85 64 36 37 45 91 117 109 102 98 97 101 100 98 98 101 94 81 50 54 91 105
36 61 50 65 81 96 89 84 82 54 10 68 63 101 232 242 252 186 169 175 158 127 140 134 115 123 136 122 117 139 159 149 135 90 60 56 80 99 99 97 93 83 73 70 74 84 87 82 77 78 81 79 69 87
34 43 38 31 48 46 55 104 89 71 65 120 191 182 186 222 236 217 179 156 126 101 94 91 82 76 66 66 68 71 89 130 137 143 132 117 110 104 98 89 82 75 65 54 57 72 89 101 100 88 79 70 72 76
24 64 57 28 35 71 55 34 52 95 143 206 230 189 151 152 175 155 186 115 67 62 59 45 39 56 58 62 70 85 83 69 85 98 107 102 101 100 95 91 86 83 77 58 51 69 84 89 97 102 106 93 97 82
-7 26 42 37 32 72 94 102 73 75 119 149 168 170 155 120 108 100 92 104 82 65 59 56 61 65 56 54 56 56 60 62 74 90 94 97 95 92 79 79 81 83 81 68 65 76 88 94 98 103 105 99 101 102

GFSWCAN_con_3kmhel_216.txt.gz
Helicity
28 22 12 8 -3 -11 -9 -19 -25 -26 -31 -31 -26 -26 -19 -18 13 28 17 23 50 -79 -34 -10 9 -5 1 68 77 46 70 109 175 135 118 101 -52 -3 -56 -12 -1 27 36 70 154 153 55 -40 -143 -29 68 72 34 124
31 27 21 14 5 -8 -13 -12 -18 -29 -36 -38 -36 -32 -30 -25 -11 26 16 28 41 38 -49 20 7 20 72 39 37 89 171 113 164 117 143 173 125 131 33 -29 58 9 46 54 157 187 103 -1 -9 119 75 23 -7 28
37 32 27 22 17 6 -6 -12 -18 -24 -38 -41 -40 -37 -35 -20 -3 26 37 34 44 97 -67 -28 28 127 104 83 125 47 78 195 127 133 110 75 103 92 58 -8 -30 2 -29 32 53 46 50 18 22 40 66 116 27 -2
34 28 28 26 22 13 5 -4 -6 -19 -34 -49 -43 -38 -30 -18 1 15 29 62 131 141 97 27 4 -0 110 146 174 190 275 138 70 117 146 163 -22 47 -43 -54 -85 -44 37 87 25 -20 -15 56 31 10 -13 32 13 9
30 26 23 24 22 16 8 1 -8 -12 -20 -43 -52 -41 -32 -24 -9 13 25 83 164 186 207 -5 16 146 115 44 135 194 219 229 190 204 203 236 184 97 -36 -47 -16 -16 33 14 78 30 41 26 31 52 29 16 -59 -67
31 28 26 22 21 21 13 8 1 -8 -28 -33 -53 -45 -33 -17 -4 31 19 45 64 154 171 38 6 64 5 93 42 206 167 95 214 224 212 206 85 100 91 23 -37 -58 -33 -6 -1 32 -19 -0 43 38 8 12 17 38
37 36 32 27 22 22 18 7 2 1 -8 -30 -23 -31 -27 -17 19 108 137 141 171 214 175 38 -45 59 81 89 64 80 112 153 205 172 206 142 61 126 60 -3 -26 -26 -15 -80 -3 14 -5 18 9 57 37 3 40 -73
34 29 24 26 24 21 19 18 5 -6 -11 -7 8 19 13 -11 1 69 117 4 210 107 115 99 24 33 68 24 24 58 111 185 150 145 83 79 -19 -14 -19 -48 -26 -24 -36 -17 -66 -9 -16 85 71 133 38 16 9 46
31 29 24 28 24 28 27 23 11 -4 -19 13 42 66 11 34 63 115 105 102 221 119 123 174 135 21 40 23 44 48 82 85 170 125 142 98 62 47 75 4 -11 -10 4 -30 -2 -37 -21 64 106 47 32 27 13 -18
32 30 25 25 32 31 25 34 27 1 -3 63 30 76 104 99 100 61 109 116 133 166 232 224 123 9 43 34 26 27 52 81 69 101 130 141 112 126 69 25 -33 18 -12 27 -4 -1 -6 11 16 30 44 32 90 74
34 27 28 26 33 37 27 33 44 21 28 71 97 130 96 70 55 85 87 110 106 129 160 159 95 52 45 41 49 33 73 56 60 90 109 82 55 45 25 49 147 156 121 55 57 33 40 69 48 93 134 170 172 219
32 31 31 30 41 45 39 37 61 67 58 56 79 45 53 73 116 126 215 157 126 86 132 75 75 68 48 39 35 37 64 59 64 67 73 66 125 149 101 73 87 72 59 48 90 83 121 155 207 284 332 344 284 261
39 39 31 30 28 49 52 48 74 51 42 61 75 71 81 76 122 194 217 154 112 140 98 69 70 75 47 18 19 54 69 72 79 86 73 105 117 64 48 56 59 71 95 153 170 211 310 417 388 294 308 260 256 275
41 35 31 31 26 50 36 43 72 80 84 103 120 111 98 134 116 131 101 67 64 111 81 70 55 65 55 35 45 49 59 82 81 72 77 137 74 20 71 60 34 67 79 95 125 220 282 342 364 338 325 270 247 255
52 50 40 24 18 55 92 82 72 104 141 169 144 155 146 86 93 114 102 112 95 63 58 51 49 53 55 47 38 43 51 67 59 84 99 48 31 69 103 90 69 52 49 67 81 128 184 231 318 395 376 352 276 211
48 46 49 59 51 50 69 64 67 91 166 200 251 199 170 136 109 116 120 83 47 57 49 47 54 53 47 62 46 34 62 72 80 72 31 52 54 68 66 103 73 66 45 34 42 62 65 49 76 119 136 172 162 156
60 51 62 43 50 44 27 66 127 205 200 228 215 184 121 129 115 99 64 62 34 71 58 50 61 48 69 60 44 40 42 79 64 45 48 93 52 50 49 54 65 116 92 73 58 48 48 36 47 72 96 91 105 129
58 54 78 72 66 52 30 80 157 193 204 206 161 160 148 124 91 81 47 50 66 62 51 56 80 88 82 44 19 64 71 55 45 34 41 65 74 38 32 52 55 54 81 77 62 46 34 49 67 76 79 71 79 88
73 78 59 43 66 93 100 124 139 222 214 162 129 105 98 99 108 79 55 47 41 67 66 91 63 53 45 37 54 76 83 50 38 35 38 50 61 81 84 78 71 49 35 17 12 22 44 52 49 55 61 66 80 88
53 31 24 14 49 127 178 199 113 184 175 164 143 108 87 102 93 90 65 55 54 66 82 94 67 59 68 48 83 53 68 100 54 45 38 38 49 63 54 48 50 40 43 61 77 83 74 66 52 45 46 53 62 83
64 46 34 31 47 88 223 230 190 178 105 89 76 63 82 72 78 92 83 56 101 126 137 111 79 74 100 87 61 90 90 45 33 28 30 23 16 21 39 53 51 53 62 51 41 53 33 40 49 50 49 65 75 58
65 10 14 13 72 87 165 133 163 107 119 118 92 12 44 39 55 64 65 87 89 144 134 116 91 93 87 67 70 83 43 54 105 108 68 41 46 53 49 44 47 58 57 45 38 35 49 51 42 37 51 53 64 72
-11 -7 36 44 73 107 134 89 69 55 103 56 31 46 56 41 56 63 99 78 93 120 105 123 122 114 78 59 81 72 51 46 77 74 48 38 42 44 41 35 32 25 22 26 28 31 38 41 41 37 38 29 42 59
1 85 112 78 73 95 89 62 35 14 28 31 29 32 23 42 52 71 101 83 75 85 100 105 133 144 145 91 106 71 70 83 121 73 66 89 69 44 41 33 25 14 9 14 16 28 30 33 33 32 27 25 30 33
34 81 171 141 99 73 56 26 -2 -12 -4 -18 -17 17 22 -14 43 70 71 64 76 86 98 106 115 113 118 142 163 186 170 127 128 106 60 73 79 82 68 45 40 42 42 36 34 35 32 35 31 30 22 17 24 19
73 61 62 70 49 33 22 -2 6 7 7 42 19 28 33 13 3 33 133 255 211 249 180 106 108 140 185 189 216 229 236 198 217 204 204 129 109 105 94 91 90 95 80 58 55 38 34 32 31 35 33 22 20 22
42 64 68 72 42 13 24 30 36 17 11 31 32 11 64 53 43 72 83 270 299 281 206 191 156 131 195 222 252 271 268 229 215 208 221 248 229 199 137 107 119 105 105 94 65 55 44 38 32 32 39 39 32 26
95 77 50 24 31 30 29 36 43 57 70 90 78 39 57 77 83 80 88 77 85 119 190 290 290 304 272 211 193 234 291 272 244 222 232 228 209 190 171 159 147 143 126 117 105 89 72 60 52 50 53 54 58 58
93 87 95 75 74 65 86 82 69 33 20 36 75 59 26 86 129 96 109 111 122 122 141 191 223 236 272 302 324 314 251 139 120 113 140 146 139 159 149 136 111 101 96 93 87 85 85 86 88 82 81 79 77 80
98 98 76 46 50 68 47 50 45 23 12 5 7 8 84 115 168 198 151 86 100 133 171 214 229 222 224 224 255 343 412 392 351 211 126 160 135 117 121 113 106 104 102 98 97 99 101 105 98 93 95 99 101 100
92 85 68 74 65 50 34 32 24 18 15 53 65 55 84 118 180 324 364 206 107 105 142 185 244 274 272 244 176 157 192 278 281 252 196 151 129 110 101 102 103 95 86 78 76 78 86 91 89 87 85 80 80 83
54 78 78 77 95 82 58 74 70 62 38 42 27 61 99 154 212 224 240 173 153 148 162 154 151 175 200 194 193 197 189 167 182 207 208 143 119 113 99 94 87 77 72 61 60 61 62 70 86 90 88 84 108 128
33 40 58 93 107 129 97 96 61 88 89 125 189 148 133 138 149 135 80 97 115 118 130 119 106 98 102 93 89 95 107 112 129 143 146 139 139 126 98 102 107 101 100 97 91 84 83 85 98 113 131 143 147 163

GFSWCAN_con_3kmhel_219.txt.gz
Helicity
45 42 37 32 25 20 27 35 36 26 12 -3 -7 -11 -20 -18 -4 26 40 25 52 8 2 132 124 -18 48 104 41 161 86 129 149 100 122 157 -13 132 105 40 101 127 136 138 146 102 71 97 75 27 61 94 130 15
40 38 32 30 34 29 21 23 27 29 21 5 -8 -6 -4 -13 -15 -1 37 50 49 62 129 62 27 248 225 177 102 121 147 127 153 166 186 127 153 188 118 -15 115 134 236 165 229 213 185 95 59 20 54 -37 50 108
44 45 39 31 27 30 30 24 22 23 27 18 2 -8 -10 -3 -2 5 27 45 72 84 -8 21 -32 143 166 144 124 83 156 152 149 221 132 159 90 175 20 39 67 59 73 85 85 -73 -2 28 76 10 -17 -10 82 22
47 37 31 34 30 27 28 26 21 20 23 22 14 0 -2 1 1 7 38 66 126 141 170 194 24 19 98 171 188 275 270 89 109 190 250 219 173 187 187 162 16 119 135 82 -63 -12 -21 -39 -55 -42 24 20 -22 10
67 53 42 37 31 28 28 28 24 26 21 17 15 12 5 6 9 2 13 81 167 226 280 162 -18 72 -7 60 34 81 223 198 162 167 211 222 274 199 179 167 129 182 16 101 78 24 -64 -42 -30 -45 -21 -154 -98 -22
63 53 48 46 46 38 33 31 27 23 20 15 6 5 8 19 45 71 27 35 112 110 126 247 202 122 123 0 53 58 102 162 249 253 198 276 291 226 203 166 -16 38 65 34 2 -30 129 115 54 18 -48 3 37 108
45 46 40 41 36 29 25 29 27 21 13 7 8 -1 6 21 110 200 199 127 134 79 99 154 204 77 99 106 135 84 76 132 175 264 307 209 257 190 173 195 87 41 -60 -34 -32 -29 31 34 17 -27 2 21 27 89
34 36 35 35 35 30 26 24 23 24 13 -6 4 3 2 22 42 101 131 122 29 99 130 264 336 189 145 78 59 57 51 83 120 152 192 198 119 129 158 244 222 113 35 7 -5 -38 -47 -31 -47 -4 65 124 62 96
29 31 33 31 30 30 28 29 21 20 10 -4 18 4 21 112 167 124 76 48 123 160 232 300 333 204 156 22 51 44 44 73 82 143 196 118 116 157 196 95 59 67 3 28 -2 -34 -60 -98 -7 5 72 176 85 50
30 27 29 30 27 28 33 30 26 18 13 48 54 76 78 90 71 92 87 118 127 156 250 331 356 308 197 77 49 69 46 40 57 53 80 104 164 174 143 134 84 -10 48 80 12 -17 4 -37 -20 -19 -17 -8 74 67
22 29 22 28 24 29 34 37 37 30 43 106 123 147 123 49 69 100 135 207 193 260 196 169 173 177 126 90 58 33 51 49 56 31 58 74 59 82 63 90 89 131 157 134 72 36 10 18 -30 28 174 176 184 175
32 33 32 28 20 20 37 43 47 70 64 95 107 55 55 111 130 138 181 155 158 140 188 118 78 95 96 96 83 51 44 42 58 95 80 75 84 88 49 29 47 98 86 69 83 60 82 102 133 194 229 241 197 228
24 28 27 28 23 22 28 34 27 33 49 100 91 90 89 85 138 200 211 164 102 107 122 117 112 100 110 89 74 54 37 59 53 57 65 101 96 75 42 17 34 44 54 77 78 86 138 202 246 236 238 216 221 271
31 39 36 23 14 23 34 47 56 62 94 110 116 135 107 133 141 161 154 109 68 102 81 81 110 92 95 94 75 62 61 60 55 81 77 108 78 43 33 60 49 26 43 58 85 110 150 240 261 276 268 215 222 281
43 45 39 22 27 25 46 87 71 87 152 159 127 181 154 90 101 96 96 64 77 88 89 108 100 97 67 89 84 77 67 36 35 60 68 40 25 32 40 50 39 16 3 -7 11 84 147 193 269 271 266 238 254 223
50 44 51 43 76 69 48 56 70 110 159 189 224 210 175 148 123 106 68 50 58 79 77 107 87 74 66 93 112 78 91 83 37 43 22 25 32 34 39 61 63 51 37 26 9 0 42 117 205 282 327 327 294 210
61 73 56 67 67 64 37 76 90 150 156 211 201 163 118 79 65 107 98 71 58 94 121 89 111 69 83 97 91 89 83 61 76 99 69 41 38 33 30 55 69 67 74 62 45 35 41 36 46 81 128 155 179 175
73 49 87 100 70 49 70 104 139 169 201 222 184 132 112 115 92 91 99 77 69 78 93 134 119 113 138 143 81 80 95 111 114 93 64 70 63 41 22 38 48 78 98 90 59 21 14 33 48 52 61 70 95 108
69 68 66 59 72 81 120 129 172 195 199 157 135 101 85 93 116 94 91 77 75 86 84 97 96 142 98 90 57 98 100 88 69 59 51 61 64 51 38 41 54 47 50 39 40 63 53 29 27 36 29 41 69 76
48 39 38 9 23 129 162 201 145 206 182 128 130 119 90 89 86 85 79 98 62 70 83 155 180 169 135 109 73 87 101 170 89 60 50 55 79 104 82 60 30 14 32 61 77 69 54 43 41 47 51 49 58 82
45 59 36 31 65 88 220 261 263 218 184 169 110 126 108 106 93 82 79 77 107 139 131 115 94 108 125 119 94 119 129 147 85 51 48 54 41 74 81 86 90 90 82 54 55 45 52 50 50 63 72 66 77 87
75 24 66 40 145 117 201 217 234 169 135 138 89 32 81 82 51 46 44 83 109 104 130 82 78 114 142 126 108 136 94 70 64 69 67 75 49 53 56 48 56 63 56 49 50 55 55 49 52 57 66 69 63 64
30 45 106 65 110 140 173 110 155 148 171 142 94 92 102 103 59 -31 6 109 94 155 137 116 94 103 109 109 93 128 105 139 145 98 69 60 52 68 70 64 55 46 45 47 45 53 49 38 40 37 43 56 54 45
16 73 94 91 100 118 98 91 74 66 65 57 53 45 58 76 84 58 31 42 98 117 138 141 143 120 116 118 123 115 126 149 123 86 87 87 68 37 30 20 12 7 3 9 27 35 28 24 28 26 23 20 26 46
36 63 96 176 155 125 77 72 87 64 60 33 22 29 31 50 50 70 31 2 88 95 71 112 121 124 115 100 136 127 161 179 147 95 77 94 85 79 61 35 21 1 22 22 11 15 14 14 14 14 7 6 7 11
54 52 58 58 75 79 95 47 29 20 20 43 13 46 55 46 76 35 14 -4 98 193 235 120 132 151 129 132 166 196 215 188 191 175 123 100 86 76 64 57 61 55 31 34 33 19 18 19 16 16 6 5 10 8
19 43 63 81 80 50 18 6 32 25 22 15 19 27 12 54 123 55 34 -15 16 118 284 248 110 103 133 174 220 307 317 276 274 214 206 232 201 126 90 79 84 80 78 72 64 50 41 34 28 26 27 21 14 17
65 84 85 66 46 48 51 29 31 38 36 16 52 50 -9 39 91 49 3 24 74 120 244 304 286 212 196 245 279 271 274 293 324 308 320 320 270 233 221 206 167 160 140 118 96 74 53 47 46 42 43 44 38 38
96 87 74 60 50 51 71 87 79 49 26 11 22 30 36 5 46 48 0 30 93 139 139 175 224 312 325 328 331 403 371 232 216 211 226 216 225 222 191 175 161 149 132 110 102 94 93 83 65 53 45 45 52 59
107 106 87 72 80 100 79 75 55 44 30 12 20 12 57 79 176 216 61 53 100 123 145 159 180 178 231 325 339 365 385 351 238 180 212 202 183 168 160 141 129 119 112 107 95 85 71 76 81 80 87 92 95 86
106 96 92 94 104 76 49 36 34 43 49 55 67 54 46 58 134 191 159 81 74 110 121 140 177 220 247 261 251 278 314 415 439 333 268 216 176 156 140 127 105 94 89 84 87 86 86 92 88 80 71 66 69 75
85 71 74 96 106 102 71 73 61 67 56 10 20 53 62 81 80 66 113 97 94 111 130 119 125 127 140 155 188 229 237 254 327 338 255 200 166 122 100 101 94 83 75 74 76 74 72 72 86 81 66 76 114 122
69 50 41 72 94 110 96 87 68 121 156 171 109 83 85 83 84 45 41 89 110 104 103 101 109 117 118 112 112 126 161 156 157 169 160 146 144 127 115 122 132 125 115 93 59 47 58 87 108 132 172 175 159 155

GFSWCAN_con_3kmhel_222.txt.gz
Helicity
48 64 57 54 56 52 49 42 38 35 40 35 22 17 11 8 21 69 72 72 102 114 104 124 145 134 101 144 129 146 26 30 134 143 157 148 133 125 143 164 142 158 166 209 200 194 116 98 5 2 45 -9 14 77
43 55 54 53 47 48 50 47 43 39 38 38 33 28 22 12 16 43 89 89 82 118 185 57 127 204 264 270 175 134 99 99 173 177 160 88 130 182 117 152 123 144 222 184 187 204 155 140 33 10 48 45 24 38
33 43 49 48 50 50 49 47 43 39 33 34 34 28 33 29 16 43 79 97 105 122 30 141 103 71 129 183 176 105 96 152 180 230 153 115 144 221 175 47 16 180 204 210 108 52 61 21 16 -7 37 50 54 16
61 63 54 46 45 45 45 46 46 47 42 34 29 26 28 26 24 30 111 117 143 159 222 202 95 95 144 141 180 273 218 116 136 143 173 155 190 176 252 236 89 215 208 200 61 15 80 2 -8 29 40 46 49 28
64 67 72 65 59 60 57 48 47 49 42 36 37 31 26 25 21 24 71 120 148 203 263 230 89 166 135 113 167 227 279 216 168 130 251 159 158 176 210 197 193 380 307 261 191 225 110 -18 27 81 -43 67 33 -12
39 46 56 62 58 50 45 41 40 49 47 33 36 35 26 37 38 101 67 70 106 198 153 244 178 284 206 163 144 138 165 154 150 158 157 187 278 292 237 380 479 369 263 161 100 143 79 32 92 102 31 130 -1 -20
41 54 53 45 50 46 44 43 37 25 24 26 19 28 34 39 94 215 134 144 217 99 129 195 161 86 117 147 131 93 120 174 181 162 205 205 236 296 321 279 243 238 260 121 61 133 -3 17 52 29 9 158 2 -47
49 55 44 52 48 38 38 34 30 26 23 15 12 14 36 39 58 121 207 59 -31 99 125 259 322 218 205 141 60 41 52 61 80 125 171 161 154 216 164 236 168 36 28 36 50 56 75 2 23 -55 -22 64 -61 -10
47 52 49 39 32 33 34 38 28 23 16 17 21 26 35 113 186 138 125 130 108 194 279 330 399 212 153 106 116 31 29 59 71 115 121 66 123 158 154 89 91 58 74 66 46 73 50 5 -35 -44 -79 -58 -33 8
51 36 28 40 37 28 29 30 34 30 23 36 74 106 103 78 23 -7 75 105 155 176 310 399 379 301 210 153 103 67 58 42 41 31 78 74 115 110 50 37 42 65 69 69 53 35 56 29 -5 -47 -51 2 4 58
41 27 35 30 26 29 32 38 37 46 57 107 121 127 98 54 83 92 115 172 158 199 184 159 177 172 92 128 94 46 77 83 52 30 62 63 70 68 59 33 20 41 66 82 101 77 40 1 15 24 22 15 30 36
37 31 24 25 24 27 26 34 42 65 75 109 118 64 70 132 158 145 164 161 165 85 65 84 56 65 50 98 89 72 80 93 82 66 67 72 73 50 45 29 16 12 32 31 65 52 38 34 38 95 121 76 34 120
14 25 20 18 14 18 26 29 36 33 45 94 113 116 103 121 200 173 188 160 85 57 67 71 50 59 78 92 84 81 81 74 53 40 54 65 47 49 25 6 16 16 15 9 29 53 49 52 91 118 130 128 96 158
29 28 24 14 8 18 17 26 51 71 107 125 125 154 137 140 89 138 180 96 48 55 77 72 94 93 99 89 67 88 81 89 92 94 66 70 28 45 27 28 18 -0 1 -1 29 45 61 76 112 120 163 149 152 203
34 28 29 26 24 30 28 51 82 87 131 151 141 170 155 72 74 81 93 70 52 45 65 95 109 97 95 98 84 81 100 95 75 60 40 3 17 21 12 14 20 22 5 -19 -8 29 66 107 140 167 168 143 167 246
45 51 57 62 53 62 68 56 79 97 142 170 208 202 113 117 80 90 67 32 33 54 71 81 86 90 87 97 156 133 138 111 74 60 66 110 85 44 22 23 46 38 21 -6 -14 -4 44 104 110 129 165 170 182 142
61 65 84 89 82 80 63 85 99 119 140 176 160 155 98 68 60 39 26 23 36 68 68 66 119 76 128 129 166 140 117 85 58 89 94 95 78 53 25 23 43 39 41 25 9 8 11 18 71 153 231 261 238 216
74 62 67 73 80 76 74 95 132 154 164 173 168 113 83 79 71 49 28 46 70 49 43 67 92 154 198 160 162 102 94 99 90 98 79 89 97 81 45 18 30 54 83 70 50 33 26 35 44 51 65 88 121 149
74 67 36 34 69 84 91 114 172 198 167 132 121 102 86 79 85 76 68 75 88 82 85 85 124 197 150 141 115 94 98 107 119 125 84 74 87 84 70 42 38 42 56 57 64 55 36 27 27 34 51 66 83 100
32 25 30 23 46 130 130 153 137 181 161 106 130 89 65 63 30 28 38 40 47 83 112 161 141 167 135 76 89 85 92 111 168 150 54 48 62 96 98 85 35 32 41 62 71 57 45 39 37 33 34 40 52 58
53 51 35 43 69 120 215 233 237 191 159 140 100 100 89 87 75 76 60 16 36 24 46 103 80 82 87 98 104 99 106 155 127 102 83 68 57 77 81 71 67 76 67 50 46 35 35 32 32 45 51 64 83 92
65 36 95 75 155 162 199 200 212 155 125 124 81 55 83 132 114 74 26 73 68 33 51 90 95 101 97 81 120 125 128 132 99 88 110 108 101 81 66 76 85 75 69 57 53 45 45 43 50 55 50 55 70 81
52 73 103 103 144 197 175 150 172 147 151 129 120 130 119 111 96 100 93 66 32 -21 26 106 80 98 128 90 100 133 140 159 134 100 95 86 69 62 65 61 57 62 56 64 58 59 49 44 49 56 60 56 61 62
71 91 84 110 130 123 102 89 94 92 89 115 121 115 99 89 66 99 132 127 81 45 -53 17 70 108 143 97 143 142 155 182 158 109 98 111 86 64 62 45 29 21 16 24 38 47 42 42 47 41 53 58 46 46
142 80 126 175 133 153 134 113 121 114 96 91 85 82 83 64 78 90 71 88 58 73 -33 -72 26 78 82 86 133 169 207 179 172 106 85 113 85 81 70 57 32 10 14 25 12 21 21 22 27 28 22 29 36 40
132 104 104 60 90 78 71 60 44 31 25 23 23 33 29 33 45 71 99 87 42 57 76 -2 13 129 89 107 163 181 133 155 170 131 98 106 100 92 62 48 31 18 16 27 22 16 11 6 7 10 10 5 5 14
97 61 41 133 104 81 98 75 51 44 39 37 24 21 19 57 51 90 76 24 10 36 -14 10 43 65 109 160 152 153 183 165 140 176 140 141 117 80 71 44 30 27 44 49 50 43 36 26 26 20 25 25 15 10
23 39 64 106 107 63 53 37 30 39 38 27 21 34 14 14 7 -10 7 51 38 50 35 62 272 214 237 323 227 240 284 299 330 291 281 276 225 175 156 150 131 117 114 100 84 77 62 47 42 39 36 33 28 24
88 100 58 30 40 60 66 62 76 60 46 40 38 30 20 11 50 20 -39 -2 32 43 72 107 243 222 246 279 304 321 300 305 274 238 255 201 206 205 205 195 177 150 137 128 118 104 86 56 35 40 38 40 36 37
108 119 87 78 84 92 106 93 75 41 30 37 48 73 81 72 97 65 34 3 32 59 84 100 132 143 166 262 301 321 413 387 251 215 242 224 195 190 202 191 176 151 125 103 93 83 85 85 85 78 67 65 59 31
100 85 82 86 96 107 107 83 86 86 64 63 83 77 18 5 37 42 48 33 26 48 84 110 123 160 145 193 236 261 258 332 334 323 296 261 225 196 170 141 128 130 129 115 94 81 77 77 60 69 70 65 62 68
92 70 67 77 79 110 113 84 63 77 66 79 55 39 39 39 29 17 64 55 51 77 93 81 73 104 124 139 140 154 192 260 326 283 242 196 177 160 147 129 109 84 66 64 69 75 64 76 94 81 67 61 69 84
111 91 71 57 88 97 103 105 101 135 146 107 79 69 42 24 31 16 -1 16 39 70 89 74 71 73 77 86 114 144 166 180 210 218 201 199 197 169 137 122 105 93 70 48 49 68 77 91 113 132 160 173 183 178